Погода в Магнитогорске

Погода в Магнитогорске : погода сейчас, прогноз погоды и архив. Всё, что Вы хотите узнать о погоде в Магнитогорске!

Хотите узнать прогноз погоды в Магнитогорске? Тогда Вам сюда: Погода в Магнитогорске

Поиск расширенной информации на нашем сайте:

Полезная информация:

Другие новости

Новости СМИ2

Главная страница сайта

Новости сайта

03.07.2017

Напоминаем, что на нашем специализированном сайте Метеоцентр.Азия вы можете получить высокодетализированные автоматические прогнозы погоды по пунктам России, СНГ и мира в авиационном формате (включающие направление и скорость ветра, видимость, явления погоды, количество и форму облачности, нижнюю и верхнюю границу облачности).

Рекомендуем:

Погода в Магнитогорске - сегодня

Время (UTC), дата Ветер
(°,м/с) 
Видим.   Явления Облачность Т
(°С)
Тd
(°С)
f(%) Тe
(°С)
Pmin
(гПа)
dP
(гПа)
Po
(мм)
O2
(г/м3)
Тmin Tmax R s Состояние
почвы
21 18.05.19 280 (З) 10 км  {ливн. осадки}  4/4 600 м 
[Sc]
+5 +0.3 72 +4  1005.1  -1.1  719  284           
00 19.05.19 280 (З) 20000 м  {ливн. осадки}  9/0 средняя 
[Ac trans]
+4.6 -1.3 66 +3  1004.9  -0.3  719  285           
03 19.05.19 290 (З) 20000 м    10/0 средняя 
[Ac As]
+4.5 -1.9 63 +3  1005.3  0.5  719  285  +4.2    0.7    влажная 
06 19.05.19 310 (СЗ) 6-11{11}  20000 м    8/8 600 м 
[Sc]
+6.5 -4.6 45 +4  1005.7  0.6  720  284           
09 19.05.19 290 (З) 6-11{12}  20000 м    8/8 600 м 
[Sc]
+11.1 -6.2 29 +10  1004.9  -0.1  720  279           
12 19.05.19 260 (З) 6-11{12}  20000 м    9/9 600 м 
[Sc]
+9.8 -5 35 +8  1006.2  721  281           
15 19.05.19 290 (З) 2{11}  20000 м    8/8 600 м 
[Sc]
+8 -4.3 41 +8  1006.9  0.4  721  283    +11.2       
18 19.05.19 310 (СЗ) 10 км  {дождь}  9/9 600 м 
[Sc]
+5 -2.6 58 +4  1008.2  0.8  722  286           
21 19.05.19 320 (СЗ) 10 км    6/6 600 м 
[Sc]
+3.2 -1.9 69 +2  1008.4  -0.1  721  287           
00 20.05.19 320 (СЗ) 20000 м    6/6 600 м 
[Sc]
+2.4 -2.4 71 1008.8  0.3  722  288           
03 20.05.19 330 (СЗ) 20000 м    4/4 600 м 
[Sc]
+5.5 -2.6 56 +4  1009.2  0.9  722  286  +2    0.0    сухая 
06 20.05.19 330 (СЗ) 4{10}  20000 м    8/8 600 м 
[Sc]
+6.4 -4.1 47 +5  1009.6  0.5  723  285           
09 20.05.19 300 (СЗ) 5{10}  20000 м    8/8 600 м 
[Sc]
+9.8 -5.6 33 +9  1009.1  723  282           
12 20.05.19 320 (СЗ) 4-10{12}  20000 м    6/6 600 м 
[Cu med, cong]
+11 -5.6 31 +10  1008.9  723  280           
15 20.05.19 330 (СЗ) 5{12}  20000 м    3/3 600 м 
[Sc diur, vesp]
+8.1 -4.4 41 +7  1010.3  0.9  723  283    +11.4       
18 20.05.19 290 (З) 2{10}  10 км    ясно 
+4.5 -3.6 56 +4  1012.1  1.1  724  287           
21 20.05.19 340 (С) 10 км    ясно 
+2 -2.4 73 +1  1012.4  0.1  724  290           
00 21.05.19 320 (СЗ) 20000 м    ясно 
+2.4 -1.9 73 +1  1012.3  0.1  724  289           
03 21.05.19 310 (СЗ) 20000 м    8/0 средняя 
[Ac trans]
+7 -0.5 59 +7  1012.6  725  285  +1.1        сухая 
06 21.05.19 330 (СЗ) 20000 м    8/0 кучево-дожд. 
[Cb cap]
+9.8 -5.9 33 +9  1012  0.1  725  282           
09 21.05.19 310 (СЗ) 4{11}  20000 м    8/8 600 м кучево-дожд. 
[Cb cap]
+10.8 -6.9 28 +10  1012  0.1  725  282           
12 21.05.19 330 (СЗ) 7-11{13}  20000 м    6/6 600 м кучево-дожд. 
[Cb cap]
+10.5 -6.7 29 +9  1012.8  0.8  725  282           
15 21.05.19 310 (СЗ) 4{11}  20000 м    8/8 600 м 
[Sc]
+10.2 -6.5 30 +9  1013.7  0.8  726  283    +13.1       
18 21.05.19 300 (СЗ) 10 км    3/3 600 м 
[Sc]
+8 -5.9 37 +7  1015.1  727  285           
21 21.05.19 280 (З) 10 км    ясно 
+5.6 -4.1 50 +5  1015.3  -0.2  727  287           
Время (UTC), дата Ветер
(°,м/с) 
Видим.   Явления Облачность Т
(°С)
Тd
(°С)
f(%) Тe
(°С)
Pmin
(гПа)
dP
(гПа)
Po
(мм)
O2
(г/м3)
Тmin Tmax R s Состояние
почвы

Для получения пояснительной информации подведите курсор к названию столбца.

ПОГОДА в Магнитогорске - архив

Всё, что Вы хотите узнать о погоде в Магнитогорске - удобно и подробно!

Выберите нужную дату (начиная с 1 января 2018* года) и нажмите кнопку "Найти".
Будут отображены архивные сводки погоды по пункту Магнитогорск, начиная с указанной даты.


Отображать данные в формате CSV (для использования в таблицах Excel)


Внимание! Наш архив погоды предназначен исключительно для личного некоммерческого использования в познавательных целях. Если Вам необходимы официальные справки о состоянии погоды (для производственных, юридических, коммерческих и т.п. целей), обращайтесь в органы Росгидромета.

*Примечание: данная дата относится к архиву по метеостанциям СССР (Россия, СНГ, Балтия).
Архив по метеостанциям Зарубежной Европы и Азии (кроме Китая) хранится 10 дней, по другим регионам земного шара (Китай, Африка, Америка, Австралия, Океания) - 1 день.

Магнитогорск - район местоположения метеостанции


Название, широта, долгота, высота метеостанции:
Магнитогорск 53.3°ш. 59.1°д. 384 м над ур. моря [Российская Федерация]

Дополнительная информация

В oтличие oт бoльшинства пoгoдных сайтoв мы публикуем пoдрoбную метеoинфoрмацию в детальнoм прoфессиoнальнoм фoрмате.

Характеристики температуры и влажнoсти вoздуха измеряются на высoте 2 м в тени вдали oт зданий и деревьев.
Скoрoсть ветра измеряется на высoте 10 м (на урoвне рoста челoвека скoрoсть ветра ниже в 1.5-2 раза). Если метеoстанция нахoдится в гoрoде или в лесу, тo скoрoсть ветра занижена на 2-4 м/с пo сравнению с oткрытым местoм. Скoрoсть ветра над акватoриями крупных рек и oзёр, а также на вершинах хoлмoв на 2-5 м/с выше, чем в oбычных услoвиях.
Атмoсфернoе давление в разных тoчках местнoсти мoжет значительнo oтличаться oт давления на метеoстанции, в зависимoсти oт услoвий рельефа (при пoдъёме на 10 м давление пoнижается примернo на 1 мм рт.ст.).